CW0126 Weather Reports


Display with metric or nautical units.
time (UTC)temp
F
wind
direction
speed
MPH
gust
MPH
rain 1hr
in
rain 24hr
in
rain mn
in
humidity
%
barometer
mb
20260510201540 44 0 0.0 0.0 0.00 0.00 0.00 48 1017.0
20260510200037 45 0 0.0 2.0 0.00 0.00 0.00 46 1016.9
20260510194534 47 0 0.0 5.0 0.00 0.00 0.00 44 1017.1
20260510193036 47 35 1.0 7.0 0.00 0.00 0.00 41 1016.9
20260510191543 48 25 2.0 7.0 0.00 0.00 0.00 40 1016.8
20260510190043 49 0 0.0 3.0 0.00 0.00 0.00 40 1016.7
20260510184542 50 15 2.0 5.0 0.00 0.00 0.00 39 1016.9
20260510183035 51 327 2.0 7.0 0.00 0.00 0.00 39 1016.9
20260510181601 52 18 2.0 6.0 0.00 0.00 0.00 38 1016.6
20260510180043 53 0 1.0 6.0 0.00 0.00 0.00 37 1017.0
20260510174552 55 287 1.0 7.0 0.00 0.00 0.00 35 1016.9
20260510173034 57 0 1.0 7.0 0.00 0.00 0.00 32 1016.8
20260510171536 57 27 1.0 8.0 0.00 0.00 0.00 31 1017.0
20260510170036 58 322 3.0 7.0 0.00 0.00 0.00 29 1017.2
20260510164542 58 336 2.0 7.0 0.00 0.00 0.00 28 1017.1
20260510163038 59 60 1.0 6.0 0.00 0.00 0.00 27 1017.2
20260510161613 59 30 0.0 6.0 0.00 0.00 0.00 27 1017.2
20260510160040 58 319 3.0 7.0 0.00 0.00 0.00 28 1017.5
20260510154543 57 330 2.0 6.0 0.00 0.00 0.00 29 1017.6
20260510153047 56 358 1.0 4.0 0.00 0.00 0.00 28 1017.8
20260510151544 58 68 2.0 9.0 0.00 0.00 0.00 27 1017.9
20260510150038 57 0 1.0 8.0 0.00 0.00 0.00 29 1018.0
20260510144535 57 313 2.0 5.0 0.00 0.00 0.00 29 1018.1
20260510143034 56 221 1.0 5.0 0.00 0.00 0.00 28 1018.3
20260510141538 56 305 1.0 4.0 0.00 0.00 0.00 29 1018.5
20260510140040 57 120 2.0 5.0 0.00 0.00 0.00 28 1018.6
20260510134542 57 309 2.0 8.0 0.00 0.00 0.00 26 1018.7
20260510133038 56 310 2.0 6.0 0.00 0.00 0.00 29 1018.8
20260510131538 57 294 2.0 6.0 0.00 0.00 0.00 26 1018.8
20260510130037 58 15 0.0 3.0 0.00 0.00 0.00 25 1019.2
20260510124538 57 120 3.0 8.0 0.00 0.02 0.00 25 1019.2
20260510123036 57 148 3.0 8.0 0.00 0.02 0.00 24 1019.4
20260510121535 57 82 2.0 10.0 0.00 0.02 0.00 22 1019.4
20260510120035 56 306 2.0 7.0 0.00 0.02 0.00 23 1019.6
20260510114540 55 174 3.0 11.0 0.00 0.36 0.00 21 1019.8
20260510113038 54 333 4.0 9.0 0.00 0.36 0.00 21 1019.9
20260510111539 54 326 2.0 6.0 0.00 0.36 0.00 20 1020.3
20260510110037 54 348 1.0 5.0 0.00 0.36 0.00 19 1020.6
20260510104539 53 302 3.0 9.0 0.00 0.36 0.00 19 1020.6
20260510103043 52 21 2.0 8.0 0.00 0.36 0.00 18 1020.7
20260510101539 52 344 1.0 4.0 0.00 0.36 0.00 15 1020.8
20260510100052 49 93 1.0 4.0 0.00 0.36 0.00 19 1020.9
20260510094534 50 340 2.0 6.0 0.00 0.36 0.00 17 1021.3
20260510093045 50 120 0.0 5.0 0.00 0.36 0.00 15 1021.3
20260510091539 49 279 2.0 7.0 0.00 0.36 0.00 17 1021.3
20260510090045 49 310 1.0 9.0 0.00 0.36 0.00 17 1021.4
20260510084539 49 353 2.0 7.0 0.00 0.36 0.00 15 1021.3
20260510083043 49 356 3.0 9.0 0.00 0.36 0.00 14 1021.3
20260510081539 48 344 2.0 8.0 0.00 0.36 0.00 13 1021.1
20260510080037 48 291 2.0 6.0 0.00 0.36 0.00 13 1021.1
20260510074542 48 317 2.0 9.0 0.00 0.36 0.00 10 1021.1
20260510073039 47 333 2.0 7.0 0.00 0.36 0.00 8 1021.0
20260510071548 47 333 2.0 10.0 0.00 0.36 0.00 7 1021.2
20260510070039 46 328 2.0 5.0 0.00 0.36 0.00 4 1021.0
20260510064534 46 53 1.0 5.0 0.00 0.36 0.00 2 1021.0
20260510063035 46 314 2.0 7.0 0.00 0.36 0.00 2 1021.0
20260510061548 46 280 1.0 3.0 0.00 0.36 0.00 100 1020.9
20260510060041 46 0 1.0 6.0 0.00 0.36 0.00 100 1020.9
20260510054537 45 0 0.0 2.0 0.00 0.36 0.00 100 1020.9
20260510053037 45 0 0.0 3.0 0.00 0.36 0.00 100 1020.8
20260510051537 44 0 0.0 0.0 0.00 0.36 0.00 100 1020.8
20260510050038 44 0 0.0 0.0 0.00 0.36 0.00 100 1020.8
20260510044537 45 0 0.0 7.0 0.00 0.36 0.00 100 1020.7
20260510043040 44 0 0.0 4.0 0.00 0.36 0.00 100 1020.7
20260510041537 44 212 0.0 2.0 0.00 0.36 0.00 100 1020.9
20260510040036 45 0 0.0 2.0 0.00 0.36 0.00 100 1020.9
20260510034540 45 0 0.0 3.0 0.00 0.36 0.00 100 1020.9
20260510033041 46 103 0.0 2.0 0.00 0.36 0.00 100 1021.2
20260510031548 46 0 0.0 5.0 0.00 0.36 0.00 100 1021.2
20260510030037 46 0 0.0 1.0 0.00 0.36 0.00 100 1021.4
20260510024545 46 0 1.0 2.0 0.00 0.36 0.00 100 1021.5
20260510023037 46 0 0.0 3.0 0.00 0.36 0.00 100 1021.6
20260510021534 46 134 0.0 0.0 0.00 0.36 0.00 100 1021.5
20260510020039 46 0 0.0 0.0 0.00 0.36 0.00 100 1021.8
20260510014537 46 0 0.0 0.0 0.00 0.36 0.00 100 1021.7
20260510013038 47 0 0.0 0.0 0.00 0.36 0.00 100 1021.7
20260510011547 47 106 1.0 9.0 0.00 0.36 0.00 100 1021.7
20260510010037 47 50 1.0 5.0 0.00 0.36 0.00 100 1021.4
20260510004545 47 0 1.0 5.0 0.00 0.36 0.00 100 1021.3
20260510003058 48 0 2.0 5.0 0.00 0.36 0.00 100 1021.2
20260510001540 48 120 1.0 6.0 0.00 0.36 0.00 100 1021.4
20260510000040 48 0 0.0 0.0 0.00 0.36 0.00 100 1021.4
20260509234552 48 0 0.0 0.0 0.00 0.36 0.00 100 1021.2
20260509233034 49 0 0.0 2.0 0.00 0.36 0.00 100 1021.4
20260509231550 49 0 0.0 8.0 0.00 0.36 0.00 100 1021.4
20260509230037 49 360 0.0 1.0 0.00 0.36 0.00 100 1021.3
20260509224539 49 338 0.0 6.0 0.00 0.36 0.36 100 1021.1
20260509223037 50 315 1.0 4.0 0.00 0.36 0.36 100 1021.0
20260509221541 50 277 2.0 10.0 0.00 0.36 0.36 100 1021.1
20260509220038 50 302 1.0 5.0 0.00 0.36 0.36 100 1020.9
20260509214538 49 62 0.0 5.0 0.00 0.36 0.36 100 1020.8
20260509213041 49 26 0.0 2.0 0.00 0.36 0.36 100 1020.7
20260509211539 49 0 0.0 1.0 0.00 0.36 0.36 100 1020.5
20260509210036 50 0 0.0 2.0 0.00 0.36 0.36 100 1020.5
20260509204540 51 99 0.0 3.0 0.00 0.36 0.36 100 1020.4
20260509203039 52 341 1.0 4.0 0.00 0.36 0.36 100 1020.4